Change the Weather History Date:

Tuesday, December 10, 2013

  Actual Average Record
Temperature  
Mean Temperature 10 °F 30 °F  
Max Temperature 22 °F 36 °F 55 °F (2007)
Min Temperature -3 °F 23 °F -3 °F (2013)
Degree Days  
Heating Degree Days 55 35  
Month to date heating degree days 382 336  
Since 1 July heating degree days 1768 1594  
Cooling Degree Days 0 0  
Month to date cooling degree days 0 0  
Year to date cooling degree days 810 713  
Moisture  
Dew Point 3 °F    
Average Humidity 70    
Maximum Humidity 87    
Minimum Humidity 60    
Precipitation  
Precipitation 0.00 in 0.08 in 0.38 in (2003)
Month to date precipitation 0.10 0.84  
Year to date precipitation 34.65 36.17  
Sea Level Pressure  
Sea Level Pressure 30.18 in    
Wind  
Wind Speed 12 mph (WSW)    
Max Wind Speed 29 mph    
Max Gust Speed 36 mph    
Visibility 10 miles    
Events      
T = Trace of Precipitation, MM = Missing Value Source: NWS Daily Summary

Daily Weather History Graph

Daily Weather History Graph

Search for Another Location

Airport or City:

Trip Planner

Search our weather history database for the weather conditions in past years. The results will help you decide how hot, cold, wet, or windy it might be!

Date:

Astronomy

Dec. 10, 2013 Rise Set
Actual Time 7:03 AM CST 4:18 PM CST
Civil Twilight 6:32 AM CST 4:49 PM CST
Nautical Twilight 5:57 AM CST 5:24 PM CST
Astronomical Twilight 5:23 AM CST 5:57 PM CST
Moon 12:23 PM CST (12/10) 12:17 AM CST (12/10)
Length of Visible Light 10h 17m
Length of Day
9h 14m
Waxing Gibbous, 62% of the Moon is Illuminated
Dec 10
Waxing Gibbous
Dec 17
Full
Dec 25
Last Quarter
Jan 1
New
Jan 7
First Quarter

Hourly Weather History & Observations

Time (CST) Temp. Windchill Dew Point Humidity Pressure Visibility Wind Dir Wind Speed Gust Speed Precip Events Conditions
12:53 AM 1.9 °F -9.2 °F -4.0 °F 76% 30.25 in 10.0 mi WSW 5.8 mph - N/A   Clear
1:53 AM 1.0 °F -11.7 °F -4.0 °F 79% 30.25 in 10.0 mi WSW 6.9 mph - N/A   Clear
2:53 AM -0.0 °F -15.3 °F -5.1 °F 79% 30.25 in 10.0 mi West 9.2 mph - N/A   Clear
3:53 AM -0.0 °F -11.6 °F -5.1 °F 79% 30.22 in 10.0 mi WSW 5.8 mph - N/A   Clear
4:53 AM -2.0 °F -15.4 °F -6.0 °F 83% 30.20 in 10.0 mi SSW 6.9 mph - N/A   Clear
5:53 AM -2.9 °F -17.7 °F -6.0 °F 87% 30.16 in 10.0 mi South 8.1 mph - N/A   Clear
6:53 AM 1.0 °F -12.9 °F -2.9 °F 83% 30.14 in 10.0 mi SSW 8.1 mph - N/A   Overcast
7:53 AM 3.9 °F -12.2 °F -2.0 °F 76% 30.13 in 10.0 mi SSW 11.5 mph - N/A   Overcast
8:53 AM 10.0 °F -7.6 °F 1.9 °F 70% 30.11 in 10.0 mi SW 17.3 mph 24.2 mph N/A   Mostly Cloudy
9:53 AM 15.1 °F -4.0 °F 3.9 °F 61% 30.10 in 10.0 mi WSW 25.3 mph 31.1 mph N/A   Overcast
11:53 AM 19.9 °F 3.5 °F 10.0 °F 65% 30.05 in 10.0 mi WSW 21.9 mph 32.2 mph N/A   Unknown
12:53 PM 21.0 °F 5.7 °F 10.9 °F 65% 30.05 in 10.0 mi WSW 19.6 mph 27.6 mph N/A   Mostly Cloudy
1:32 PM 21.0 °F 3.9 °F 10.9 °F 65% 30.06 in 10.0 mi WSW 25.3 mph 32.2 mph N/A   Mostly Cloudy
1:53 PM 21.9 °F 5.8 °F 10.0 °F 60% 30.07 in 10.0 mi West 23.0 mph 32.2 mph N/A   Partly Cloudy
2:53 PM 21.0 °F 3.6 °F 9.0 °F 60% 30.10 in 10.0 mi West 26.5 mph 35.7 mph N/A   Clear
3:53 PM 19.9 °F 3.9 °F 9.0 °F 62% 30.14 in 10.0 mi West 20.7 mph 32.2 mph N/A   Clear
4:53 PM 17.1 °F 1.5 °F 7.0 °F 65% 30.17 in 10.0 mi West 17.3 mph 32.2 mph N/A   Clear
5:53 PM 16.0 °F 0.1 °F 6.1 °F 65% 30.19 in 10.0 mi West 17.3 mph - N/A   Clear
6:53 PM 14.0 °F -0.8 °F 6.1 °F 71% 30.20 in 10.0 mi West 13.8 mph - N/A   Clear
7:53 PM 14.0 °F -1.4 °F 6.1 °F 71% 30.25 in 10.0 mi West 15.0 mph - N/A   Clear
8:53 PM 15.1 °F 1.1 °F 5.0 °F 64% 30.25 in 10.0 mi West 12.7 mph - N/A   Partly Cloudy
9:53 PM 15.1 °F 0.5 °F 6.1 °F 68% 30.27 in 10.0 mi West 13.8 mph - N/A   Overcast
10:53 PM 16.0 °F 3.6 °F 5.0 °F 62% 30.28 in 10.0 mi West 10.4 mph - N/A   Overcast
11:53 PM 16.0 °F 3.6 °F 6.1 °F 65% 30.33 in 10.0 mi West 10.4 mph - N/A   Overcast